Погода в Новом Ургале

Россия / Хабаровский край     51°04′19″N   132°35′46″E
темп.,
°C
ветер,
м/с
пор.,
м/с
влажн.,
%
обл.,
%
осадки,
мм/ч
давл.,
гПа
погр.,
м
7 мая, пт
пт701:00+2ссз118868 0.0 100210
04:000ссв21915 0.0 100314
07:00+2с11855 0.0 100393
10:00+8св11605 0.0 1002598
13:00+12всв1143100 0.0 10001640
16:00+13св4340100 0.0 9971637
19:00+12св5544100 0.0 9961154
22:00+7ссв3570100 0.0 997239
8 мая, сб
сб801:00+4ссв3468100 0.0 997377
04:00+1ссв4789100 1.2 997434
07:00+1ссв4798100 3.3 997322
10:00+1ссв3699100 6.2 998253
13:00+3с3491100 1.9 998449
16:00+7з1170100 1.9 998879
19:00+6юз218399 0.0 999453
22:00+2зюз119787 0.0 100110
9 мая, вс
вс901:00+1ссв2492100 0.0 1001111
04:00−2с2493100 0.0 100285
07:000с3783100 0.0 1002300
10:00+4ссв4569100 0.0 1001557
13:00+8всв2459100 0.1 10011194
16:00+10в135997 0.1 10011193
19:00+9ссз2360100 0.0 1002546
22:00+4зсз1181100 0.0 100519
10 мая, пн
пн1001:00+2ссз2285100 0.0 100734
04:000с2287100 0.0 100928
07:00+2ссв2380100 0.0 1010147
10:00+7ссв125878 0.0 1010728
13:00+12ссв124436 0.0 10091337
16:00+13с024291 0.0 10081791
19:00+12юз215295 0.0 1009678
22:00+8ююз2275100 0.1 101140
11 мая, вт
вт1101:00+7ююв2379100 0.0 1012110
04:00+5юв118597 0.1 101459
07:00+5юв1280100 0.3 1014134
10:00+5всв1187100 1.4 1015162
13:00+7в117998 0.1 1015419
16:00+11ююв116370 0.2 10141089
19:00+11ю125789 0.1 10131094
22:00+8ююв238095 0.1 101458